Regional Weather Roundup
Issued by NWS

Home | Current Version | Previous Version | Graphics & Text | Print | Product List | Glossary On
Versions: 1 2 3 4 5 6 7 8 9 10 11 12 13 14 15 16 17 18 19 20 21 22 23 24 25 26 27 28 29 30 31 32 33 34 35 36 37 38 39 40 41 42 43 44 45 46 47 48 49 50
000
ASUS43 KFSD 021402
RWRSD

WEATHER ROUNDUP FOR SOUTH DAKOTA
NATIONAL WEATHER SERVICE SIOUX FALLS SD
900 AM CDT THU JUL 02 2015

NOTE: "FAIR" INDICATES FEW OR NO CLOUDS BELOW 12,000 FEET WITH NO
SIGNIFICANT WEATHER AND/OR OBSTRUCTIONS TO VISIBILITY.


SDZ001>005-009-010-012>017-021500-
NORTHWEST AND NORTH CENTRAL SOUTH DAKOTA

CITY           SKY/WX    TMP DP  RH WIND       PRES   REMARKS
BUFFALO          N/A     66  59  78 NW12      30.02R
FAITH            N/A     67  60  78 NW12      30.03R
MOBRIDGE       CLOUDY    66  65  96 E3        29.97R
$$

SDZ012>016-024>037-041>051-057-063-072>074-021500-
SOUTHWEST AND SOUTH CENTRAL SOUTH DAKOTA

CITY           SKY/WX    TMP DP  RH WIND       PRES   REMARKS
RAPID CTY ARPT SUNNY     68  63  84 N15       30.07R
PIERRE         HVY RAIN  62  61  96 NW6       29.98R FOG
CUSTER         SUNNY     65  52  62 W7        30.20R
ELLSWORTH AFB  MOSUNNY   68  62  81 NW16G23   30.07R
PHILIP         SUNNY     69  64  84 N9        30.00R
PINE RIDGE     MOSUNNY   66  60  81 W7        30.09R
WINNER         LGT RAIN  65  61  87 NE10      29.98R
$$

SDZ004>011-016>023-039-040-021500-
NORTHEAST SOUTH DAKOTA

CITY           SKY/WX    TMP DP  RH WIND       PRES   REMARKS
ABERDEEN       RAIN      62  58  86 CALM      30.00R FOG
WATERTOWN      PTSUNNY   64  50  60 SE9       29.99F
BROOKINGS      CLOUDY    59  52  77 E9        30.02R
SISSETON         N/A     62  54  74 S7        29.99S
$$

SDZ017-020-022-023-036>040-048>070-021500-
SOUTHEAST SOUTH DAKOTA

CITY           SKY/WX    TMP DP  RH WIND       PRES   REMARKS
SIOUX FALLS    CLOUDY    63  54  72 SE9       29.98F
HURON          CLOUDY    61  56  83 E5        29.98R
MITCHELL       LGT RAIN  61  59  93 E10       29.97R
YANKTON        CLOUDY    59  55  88 E9        29.95F
$$

ABBREVIATIONS USED IN REMARKS
   TC - TEMPERATURE IN CELSIUS
  WCI - WIND CHILL INDEX
   HX - HEAT INDEX
  VSB - VISIBILITY



USA.gov is the U.S. government's official web portal to all federal, state and local government web resources and services.